Simultaneous Nadir Overpasses (SNOs) Predictions

Prediction of SNOs between METOP-B and NPP Satellite Orbit:

Table of predicted SNOs for the next 14.0 days since TLE Epoch: 2/18/2024
Index Date (METOP-B) Time (METOP-B) Lat,Lon (METOP-B) SZA (METOP-B ) Date (NPP) Time (NPP) Lat,Lon (NPP) SZA (NPP ) Distance(km) Time Diff (sec)
1 03/02/2024 18:25:36 73.78,-103.80 80.76 03/02/2024 18:24:28 73.76,-106.39 80.91 80.33 68
2 03/02/2024 19:16:20 -73.69, 63.32 99.34 03/02/2024 19:15:11 -73.70, 61.06 99.17 70.56 69
3 03/02/2024 20:07:04 73.46,-129.88 80.45 03/02/2024 20:05:52 73.47,-131.09 80.55 38.28 72
4 03/02/2024 20:57:47 -73.42, 37.37 99.60 03/02/2024 20:56:35 -73.41, 36.35 99.53 32.19 72
5 03/02/2024 21:48:31 73.19,-155.81 80.19 03/02/2024 21:47:16 73.18,-155.81 80.20 1.42 75
6 03/02/2024 22:39:14 -73.15, 11.44 99.85 03/02/2024 22:38:00 -73.17, 11.52 99.82 3.39 74
7 03/02/2024 23:29:53 73.17, 178.81 80.15 03/02/2024 23:28:46 73.18, 178.80 80.18 1.58 67
8 03/03/2024 00:20:35 -73.19, -13.84 99.85 03/03/2024 00:19:30 -73.18, -13.88 99.84 1.39 65
9 03/03/2024 01:11:15 73.15, 153.43 80.11 03/03/2024 01:10:15 73.14, 153.52 80.11 3.15 60
10 03/03/2024 02:01:57 -73.17, -39.21 99.90 03/03/2024 02:01:00 -73.19, -39.27 99.86 2.96 57
11 03/03/2024 02:52:37 73.13, 128.05 80.07 03/03/2024 02:51:45 73.15, 128.13 80.09 3.20 52



Historial Predications of SNOs between METOP-B and NPP
